Indianapolis, IN

9:47 AM EDT on July 21, 2017 (GMT -0400)
Indianapolis International

Weather History for KIND - January, 2013

Change the Weather History Date:

Wednesday, January 23, 2013

  Actual Average Record
Temperature  
Mean Temperature 16 °F 28 °F  
Max Temperature 23 °F 36 °F 67 °F (1909)
Min Temperature 9 °F 20 °F -18 °F (1936)
Degree Days  
Heating Degree Days 49 37  
Month to date heating degree days 823 851  
Since 1 July heating degree days 2804 2927  
Cooling Degree Days 0 0  
Month to date cooling degree days 0 0  
Year to date cooling degree days 0 0  
Moisture  
Dew Point 4 °F    
Average Humidity 57    
Maximum Humidity 69    
Minimum Humidity 45    
Precipitation  
Precipitation T in 0.08 in 0.90 in (1950)
Month to date precipitation 3.85 2.02  
Year to date precipitation 3.85 2.02  
Snow  
Snow T in 0.30 in 2.50 in (1963)
Month to date snowfall 0.3 6.3  
Since 1 July snowfall 15.3 14.3  
Snow Depth 0.00 in    
Sea Level Pressure  
Sea Level Pressure 30.27 in    
Wind  
Wind Speed 6 mph (WSW)    
Max Wind Speed 22 mph    
Max Gust Speed 29 mph    
Visibility 10 miles    
Events Snow    
T = Trace of Precipitation, MM = Missing Value Source: NWS Daily Summary

Daily Weather History Graph

Daily Weather History Graph

Search for Another Location

Airport or City:

Trip Planner

Search our weather history database for the weather conditions in past years. The results will help you decide how hot, cold, wet, or windy it might be!

Date:

Astronomy

Jan. 23, 2013 Rise Set
Actual Time 8:00 AM EST 5:54 PM EST
Civil Twilight 7:30 AM EST 6:23 PM EST
Nautical Twilight 6:58 AM EST 6:56 PM EST
Astronomical Twilight 6:26 AM EST 7:28 PM EST
Moon 3:04 PM EST (1/23) 5:10 AM EST (1/23)
Length of Visible Light 10h 52m
Length of Day
9h 54m
Waxing Gibbous, 89% of the Moon is Illuminated
Jan 23
Waxing Gibbous
Jan 26
Full
Feb 3
Last Quarter
Feb 10
New
Feb 17
First Quarter

Hourly Weather History & Observations

Time (EST) Temp. Windchill Dew Point Humidity Pressure Visibility Wind Dir Wind Speed Gust Speed Precip Events Conditions
12:54 AM 12.9 °F -1.6 °F -0.9 °F 54% 30.38 in 10.0 mi West 12.7 mph - N/A   Mostly Cloudy
1:54 AM 12.9 °F 2.6 °F -0.0 °F 56% 30.38 in 10.0 mi West 6.9 mph - N/A   Mostly Cloudy
2:54 AM 10.9 °F 1.4 °F -0.0 °F 61% 30.38 in 10.0 mi West 5.8 mph - N/A   Partly Cloudy
3:54 AM 9.0 °F 0.6 °F -0.0 °F 67% 30.37 in 10.0 mi WSW 4.6 mph - N/A   Scattered Clouds
4:54 AM 10.0 °F 3.6 °F -0.0 °F 64% 30.37 in 10.0 mi West 3.5 mph - N/A   Mostly Cloudy
5:54 AM 12.0 °F 2.7 °F 1.9 °F 64% 30.36 in 10.0 mi WSW 5.8 mph - N/A   Overcast
6:54 AM 12.9 °F 5.2 °F 1.0 °F 59% 30.35 in 10.0 mi West 4.6 mph - N/A   Overcast
7:54 AM 12.9 °F 5.2 °F 1.0 °F 59% 30.36 in 10.0 mi West 4.6 mph - N/A   Overcast
8:54 AM 14.0 °F 6.5 °F 1.0 °F 56% 30.35 in 10.0 mi SW 4.6 mph - N/A   Overcast
9:54 AM 15.1 °F 5.2 °F 1.0 °F 54% 30.35 in 10.0 mi SSW 6.9 mph - N/A   Overcast
10:54 AM 16.0 °F 5.3 °F 1.0 °F 52% 30.35 in 10.0 mi SSW 8.1 mph - 0.00 in Snow Light Snow
11:54 AM 17.1 °F 7.6 °F 1.0 °F 50% 30.33 in 10.0 mi SW 6.9 mph - 0.00 in   Overcast
12:54 PM 19.0 °F 9.0 °F 1.9 °F 47% 30.27 in 10.0 mi SSW 8.1 mph - N/A   Overcast
1:54 PM 21.9 °F 11.0 °F 3.9 °F 46% 30.23 in 10.0 mi SW 10.4 mph - N/A   Overcast
2:54 PM 21.0 °F 11.4 °F 5.0 °F 50% 30.20 in 10.0 mi SW 8.1 mph - N/A   Overcast
3:54 PM 21.0 °F 14.6 °F 6.1 °F 53% 30.19 in 10.0 mi West 4.6 mph - N/A   Overcast
4:54 PM 21.9 °F - 7.0 °F 53% 30.17 in 10.0 mi Calm Calm - N/A   Overcast
5:54 PM 21.9 °F - 7.0 °F 53% 30.16 in 10.0 mi Calm Calm - N/A   Mostly Cloudy
6:54 PM 21.9 °F - 8.1 °F 55% 30.16 in 10.0 mi Calm Calm - N/A   Overcast
7:54 PM 21.0 °F 16.2 °F 8.1 °F 57% 30.15 in 10.0 mi SSE 3.5 mph - N/A   Overcast
8:54 PM 21.9 °F 13.4 °F 8.1 °F 55% 30.14 in 10.0 mi South 6.9 mph - N/A   Overcast
9:54 PM 19.9 °F 14.9 °F 10.0 °F 65% 30.14 in 10.0 mi West 3.5 mph - N/A   Mostly Cloudy
10:54 PM 19.9 °F 11.1 °F 10.9 °F 68% 30.15 in 10.0 mi West 6.9 mph - N/A   Mostly Cloudy
11:54 PM 21.9 °F 8.2 °F 10.9 °F 63% 30.20 in 9.0 mi NNW 16.1 mph - 0.00 in   Mostly Cloudy